Regional Weather Roundup
Issued by NWS

Home | Current Version | Previous Version | Graphics & Text | Print | Product List | Glossary On
Versions: 1 2 3 4 5 6 7 8 9 10 11 12 13 14 15 16 17 18 19 20 21 22 23 24 25 26 27 28 29 30 31 32 33 34 35 36 37 38 39 40 41 42 43 44 45 46 47 48 49 50
647
ASUS44 KJAN 181703
RWRMS

MISSISSIPPI HOURLY WEATHER ROUNDUP
NATIONAL WEATHER SERVICE JACKSON MS
1200 PM CDT FRI APR 18 2014

NOTE: "FAIR: INDICATES FEW OR NO CLOUDS BELOW 12,000 FEET WITH NO
SIGNIFICANT WEATHER AND/OR OBSTRUCTIONS TO VISIBILITY.

MSZ001>002-007>008-010>013-018>021-025>028-034>036-181800-
NORTHWEST MISSISSIPPI

CITY           SKY/WX    TMP DP  RH WIND       PRES   REMARKS
CLARKSDALE       N/A     66  55  68 N8        30.24F
CLEVELAND      FAIR      68  57  68 NE8       30.21S
GREENWOOD      MOSUNNY   70  55  59 VRB7      30.19F
GREENVILLE     PTSUNNY   71  56  58 NE8       30.20S
GRENADA        FAIR      66  54  63 E7        30.22F
OLIVE BRANCH   CLOUDY    64  52  63 NE6       30.25F
OXFORD         FAIR      64  48  55 NW3       30.25F
TUNICA         MOSUNNY   64  48  55 NE6       30.25F
$$

MSZ003>006-009-014>017-022>024-029>033-037>039-181800-
NORTHEAST MISSISSIPPI

CITY           SKY/WX    TMP DP  RH WIND       PRES   REMARKS
BELMONT        DRIZZLE   55  51  86 E5        30.27S
COLUMBUS AFB   CLOUDY    59  54  82 NE6       30.24F
CORINTH        CLOUDY    66  46  48 E8        30.26S
GOLDN TRIANGLE LGT RAIN  57  52  82 E5        30.26F FOG
STARKVILLE     CLOUDY    61  52  72 E6        30.23S
TUPELO         CLOUDY    63  49  60 VRB5      30.25S
$$

MSZ040-058-181800-
CENTRAL MISSISSIPPI

CITY           SKY/WX    TMP DP  RH WIND       PRES   REMARKS
JACKSON INTL   CLOUDY    67  57  70 N10       30.18S
JACKSON HAWKNS PTSUNNY   68  56  65 NE9       30.18F
MERIDIAN KEY   CLOUDY    58  54  86 N13       30.19F
MERIDIAN NAS   CLOUDY    61  54  77 E13G20    30.20F
RAYMOND        PTSUNNY   66  63  88 N7        30.17F
VICKSBURG      NOT AVBL
$$

MSZ059>079-181800-
SOUTH MISSISSIPPI

CITY           SKY/WX    TMP DP  RH WIND       PRES   REMARKS
BROOKHAVEN     PTSUNNY   64  59  82 N7        30.18F
COLUMBIA       CLOUDY    64  59  82 MISG      30.13F
HATTIESBURG    CLOUDY    61  57  87 N8        30.15S
MCCOMB         PTSUNNY   68  57  68 VRB7      30.14F
NATCHEZ        CLOUDY    68  57  68 N6        30.15F
PINE BELT      CLOUDY    59  55  88 N14       30.16S
$$

MSZ080>082-181800-
COASTAL MISSISSIPPI

CITY           SKY/WX    TMP DP  RH WIND       PRES   REMARKS
BAY ST LOUIS     N/A     63  55  77 N12G21    30.09S
BILOXI         CLOUDY    67  60  78 N13G22    30.06S
PASCAGOULA     CLOUDY    63  59  87 N17G26    30.06F
GULFPORT       CLOUDY    68  58  70 N18G24    30.06S
$$



USA.gov is the U.S. government's official web portal to all federal, state and local government web resources and services.